Home   Weather   Eskilstuna   Past weeks

Flag for Sweden Past Weather in Eskilstuna, Sweden — Yesterday and Last 2 Weeks

Now
30 °F

Light snow. Partly sunny.


Feels Like: 20 °F
Forecast: 16 / 29 °F
Wind: 13 mph from North

Location: Vasteras / Hasslo

Current Time: Jan 16, 2017 at 11:56:15 am

Latest Report: Jan 16, 2017 at 11:20 am


Visibility: N/A

Pressure: 30.27 "Hg

Humidity: 86%

Dew Point: 27 °F

Location of EskilstunaLocation

Past Weather in Eskilstuna — Graph

°F

Eskilstuna Temperature Yesterday

Maximum temperature yesterday: 27 °F (at 1:20 pm)
Minimum temperature yesterday: 19 °F (at 7:20 am)
Average temperature yesterday: 23 °F

High & Low Weather Summary for the Past Weeks

 TemperatureHumidityPressure
High39 °F (Jan 9, 3:50 pm)100% (Jan 3, 11:20 pm)30.72 "Hg (Jan 3, 11:20 pm)
Low-15 °F (Jan 6, 1:20 am)60% (Jan 2, 1:50 pm)28.68 "Hg (Jan 12, 12:50 am)
Average25 °F83%29.75 "Hg
* Reported Jan 1 10:20 am — Jan 16 10:20 am, Eskilstuna, Weather by CustomWeather, © 2017

Note: Actual official high and low records may vary slightly from our data, if they occured in-between our weather recording intervals... More about our weather records

Advertising

Eskilstuna Weather History for the Previous 24 Hours

Scroll right to see more
 ConditionsComfort  
Time TempWeatherWind HumidityBarometerVisibility
10:20 am
Mon, Jan 16
30 °FBroken clouds.12 mph80%30.24 "HgN/A
9:50 am30 °FBroken clouds.12 mph80%30.24 "HgN/A
9:20 am28 °FBroken clouds.14 mph86%30.21 "HgN/A
8:50 am28 °FBroken clouds.13 mph86%30.21 "HgN/A
8:20 am28 °FPartly cloudy.13 mph86%30.18 "HgN/A
7:50 am27 °FIce fog.14 mph93%30.18 "Hg4 mi
7:20 am27 °FOvercast.10 mph86%30.18 "HgN/A
6:50 am27 °FPartly cloudy.8 mph86%30.15 "HgN/A
6:20 am25 °FPassing clouds.3 mph86%30.15 "HgN/A
5:50 am21 °FPassing clouds.2 mph86%30.12 "HgN/A
5:20 am23 °FPassing clouds.6 mph86%30.12 "HgN/A
4:50 am21 °FPassing clouds.2 mph86%30.12 "HgN/A
4:20 am19 °FLight snow. Passing clouds.2 mph86%30.12 "Hg1 mi
3:50 am19 °FPartly cloudy.5 mph79%30.12 "HgN/A
3:20 am19 °FPassing clouds.3 mph86%30.09 "HgN/A
2:50 am21 °FPassing clouds.5 mph80%30.09 "HgN/A
2:20 am19 °FCold.2 mph79%30.09 "HgN/A
1:20 am21 °FCold.7 mph80%30.09 "HgN/A
12:50 am23 °FCold.3 mph74%30.09 "HgN/A
12:20 am23 °FCold.7 mph74%30.09 "HgN/A
11:50 pm
Sun, Jan 15
21 °FCold.5 mph80%30.07 "HgN/A
11:20 pm23 °FCold.6 mph80%30.07 "HgN/A
10:50 pm23 °FCold.6 mph74%30.07 "HgN/A
10:20 pm23 °FCold.6 mph80%30.07 "HgN/A
9:50 pm23 °FCold.5 mph80%30.04 "HgN/A
9:20 pm23 °FCold.5 mph80%30.04 "HgN/A
8:50 pm23 °FCold.6 mph80%30.04 "HgN/A
8:20 pm23 °FCold.3 mph80%30.04 "HgN/A
7:50 pm23 °FCold.6 mph86%30.01 "HgN/A
7:20 pm23 °FCold.3 mph86%30.01 "HgN/A
6:50 pm25 °FCold.5 mph80%30.01 "HgN/A
6:20 pm23 °FCold.3 mph86%30.01 "HgN/A
5:50 pm25 °FPassing clouds.8 mph80%29.98 "HgN/A
5:20 pm27 °FPassing clouds.6 mph74%29.98 "HgN/A
4:50 pm27 °FPassing clouds.6 mph74%29.98 "HgN/A
4:20 pm27 °FPassing clouds.6 mph74%29.95 "HgN/A
3:50 pm27 °FPartly cloudy.7 mph74%29.95 "HgN/A
3:20 pm27 °FPartly sunny.5 mph74%29.95 "HgN/A
2:50 pm27 °FPartly sunny.5 mph74%29.95 "HgN/A
2:20 pm27 °FScattered clouds.3 mph74%29.92 "HgN/A
1:50 pm27 °FPassing clouds.5 mph74%29.92 "HgN/A
1:20 pm27 °FSunny.6 mph69%29.92 "Hg10 mi
12:50 pm25 °FSunny.7 mph69%29.89 "Hg10 mi
12:20 pm25 °FSunny.6 mph69%29.89 "Hg10 mi
11:50 am25 °FCold.3 mph63%29.89 "HgN/A
11:20 am23 °FCold.7 mph68%29.89 "HgN/A
Weather by CustomWeather, © 2017

See weather overviewHow to use our weather pages